Hourly Data Report for October 09, 2012

All times are specified in Local Standard Time (LST). Add 1 hour to adjust for Daylight Saving Time where and when it is observed.

ST LEONARD CS
NEW BRUNSWICK

47°09'28.050" N
67°49'55.014" W
245.00 m
810I001
71019
WIY

Download Data

Hourly Data (October 2012)
Hourly Data Report for October 9, 2012
Temp Definition
°C
Dew Point Temp Definition
°C
Rel Hum Definition
%
Wind Dir Definition
10's deg

Wind Spd Definition
km/h
Visibility Definition
km
Stn Press Definition
kPa
Hmdx Definition


Wind Chill Definition


Weather Definition


TIME
00:00 -1.8 -2.3 96   0   99.74     LegendNANA
01:00 -1.8 -2.3 96 16 4   99.78   -3 LegendNANA
02:00 -2.3 -2.9 96 14 4   99.81   -4 LegendNANA
03:00 -2.7 -3.2 96 12 2   99.82   -3 LegendNANA
04:00 -2.7 -3.2 96 9 2   99.85   -3 LegendNANA
05:00 -2.2 -2.7 96 13 6   99.89   -5 LegendNANA
06:00 -2.8 -3.3 96 7 4   99.91   -4 LegendNANA
07:00 -3.2 -3.7 96   0   99.95     LegendNANA
08:00 0.8 -0.9 88   0   99.96     LegendNANA
09:00 4.6 0.0 72   0   99.97     LegendNANA
10:00 6.5 0.7 66 17 6   99.97     LegendNANA
11:00 8.5 1.5 61 19 9   99.91     LegendNANA
12:00 10.5 -0.7 46 16 9   99.84     LegendNANA
13:00 11.4 -1.4 41 18 9   99.74     LegendNANA
14:00 11.8 -1.9 38 20 9   99.67     LegendNANA
15:00 12.0 -2.3 37 15 7   99.61     LegendNANA
16:00 12.1 -2.0 37 19 7   99.54     LegendNANA
17:00 11.1 -1.0 43 20 7   99.50     LegendNANA
18:00 8.4 -1.0 52 17 4   99.48     LegendNANA
19:00 4.3 -0.2 73 15 4   99.48     LegendNANA
20:00 4.7 -0.9 67 15 6   99.46     LegendNANA
21:00 2.5 -0.8 79 13 4   99.43     LegendNANA
22:00 2.3 -1.1 78 10 6   99.35     LegendNANA
23:00 2.1 -2.0 74 10 4   99.31     LegendNANA

Notes on Data Quality.

Legend

  • E = Estimated
  • M = Missing
  • NA = Not Available
  • ‡ = Partner data that is not subject to review by the National Climate Archives
Date modified: